Content
SEND FEEDBACK

Daily
Averages
Monthly
Summary
Spain

BARCELONA, SPAIN


Home > Europe > Spain
Elevation: 20 feet     Latitude: 41 17N     Longitude: 002 04E

WEATHER
 
SELECT A DAY
Number of Records: 290,233;   Date Range: 7/1/96 - 8/30/14
 
SHARE

PRINT THIS DATA

[ ← Previous Day ]
WEATHER ALMANAC - FEBRUARY 13, 2013
[ Next Day → ]
[ °C ]   °F
Weather ElementAverageHighLow
Temperature49.5 °F57.2 °F (3:00 pm)42.8 °F (9:00 am)
Dewpoint37.9 °F42.8 °F (6:00 pm)33.8 °F (9:00 am)
Humidity64 %81 % (11:00 pm)31 % (1:00 pm)
Barometer29.99 in30.09 in (9:30 pm)29.92 in (12:30 am)
Wind Speed9.3 mph15 mph (1:30 am)
Wind Gust21.9 mph (8:30 am)
Weather ElementAverage
Visibility7.5 mi
Wind DirectionWSW (259.4 °)

Weather ElementTotal
Precipitation---
Heating Degree Days15 (Base 65)
Averaged from 50 records on February 13, 2013
WEATHER CONDITIONS BREAKOUT
WIND DIRECTION BREAKOUT
WEATHER BY HOUR - FEBRUARY 13, 2013
[ °C ]   °F
Local TimeTemperatureDewpointHumidityBarometerVisibilityWind DirectionWind SpeedGust SpeedPrecipitationEventsConditions
12:30 AM48.2 °F37.4 °F66 %29.92 in6.2 miNorth (360°)8.1 mphPartly Cloudy
1:00 AM46.0 °F35.0 °F55 %29.92 in19.0 miNNW (340°)11.5 mphScattered Clouds
1:00 AM46.4 °F35.6 °F66 %29.92 in6.2 miNW (320°)10.4 mphPartly Cloudy
1:30 AM46.4 °F35.6 °F66 %29.92 in6.2 miNW (320°)15.0 mphPartly Cloudy
2:00 AM46.4 °F35.6 °F66 %29.92 in6.2 miNNW (330°)11.5 mphPartly Cloudy
2:30 AM46.4 °F35.6 °F66 %29.92 in6.2 miNW (320°)13.8 mphPartly Cloudy
3:00 AM46.4 °F35.6 °F66 %29.92 in6.2 miNNW (330°)13.8 mphPartly Cloudy
3:30 AM44.6 °F35.6 °F71 %29.92 in6.2 miNNW (340°)12.7 mphPartly Cloudy
4:00 AM44.6 °F35.6 °F71 %29.92 in6.2 miNW (320°)13.8 mphPartly Cloudy
4:30 AM44.6 °F35.6 °F71 %29.92 in6.2 miNW (320°)13.8 mphPartly Cloudy
5:00 AM44.6 °F35.6 °F71 %29.92 in6.2 miNW (320°)15.0 mphScattered Clouds
5:30 AM44.6 °F35.6 °F71 %29.95 in6.2 miNNW (330°)12.7 mphMostly Cloudy
6:00 AM44.6 °F35.6 °F71 %29.95 in6.2 miNNW (340°)12.7 mphMostly Cloudy
6:30 AM44.6 °F35.6 °F71 %29.95 in6.2 miNNW (330°)10.4 mphMostly Cloudy
7:00 AM43.0 °F34.0 °F60 %29.97 in16.0 miNorth (350°)13.8 mphMostly Cloudy
7:00 AM44.6 °F35.6 °F71 %29.95 in6.2 miNW (320°)9.2 mphMostly Cloudy
7:30 AM44.6 °F35.6 °F71 %29.98 in6.2 miNNW (330°)8.1 mphMostly Cloudy
8:00 AM44.6 °F35.6 °F71 %29.98 in6.2 miNNW (330°)8.1 mphMostly Cloudy
8:30 AM44.6 °F35.6 °F71 %29.98 in6.2 miNW (320°)10.4 mph21.9 mphMostly Cloudy
9:00 AM42.8 °F33.8 °F70 %30.01 in6.2 miNW (320°)11.5 mphScattered Clouds
9:30 AM44.6 °F33.8 °F66 %30.01 in6.2 miNW (320°)9.2 mphPartly Cloudy
10:00 AM46.4 °F35.6 °F66 %30.01 in6.2 miNNW (340°)11.5 mphPartly Cloudy
10:30 AM48.2 °F35.6 °F62 %30.01 in6.2 miNNW (330°)8.1 mphPartly Cloudy
11:00 AM51.8 °F35.6 °F54 %30.01 in6.2 miWNW (300°)4.6 mphPartly Cloudy
11:30 AM53.6 °F39.2 °F58 %30.01 inWest (280°)3.5 mphClear
12:30 PM53.6 °F37.4 °F54 %30.01 inSSW (200°)6.9 mphClear
1:00 PM56.0 °F34.0 °F31 %30.01 in19.0 miSW (220°)11.5 mphScattered Clouds
1:00 PM55.4 °F37.4 °F51 %30.01 in6.2 miSW (220°)9.2 mphPartly Cloudy
1:30 PM55.4 °F37.4 °F51 %30.01 in6.2 miSSW (210°)10.4 mphPartly Cloudy
2:00 PM55.4 °F37.4 °F51 %29.98 in6.2 miSW (220°)15.0 mphPartly Cloudy
2:30 PM55.4 °F39.2 °F54 %29.98 in6.2 miSW (220°)13.8 mphPartly Cloudy
3:00 PM57.2 °F41.0 °F55 %29.98 in6.2 miSSW (210°)13.8 mphPartly Cloudy
3:30 PM55.4 °F41.0 °F58 %29.98 in6.2 miSSW (200°)12.7 mphPartly Cloudy
4:00 PM55.4 °F41.0 °F58 %29.98 inSouth (190°)13.8 mphClear
4:30 PM55.4 °F41.0 °F58 %30.01 inSouth (170°)10.4 mphClear
5:00 PM55.4 °F41.0 °F58 %30.01 inSSE (160°)9.2 mphClear
5:30 PM55.4 °F41.0 °F58 %30.01 inSSE (150°)6.9 mphClear
6:00 PM55.4 °F42.8 °F63 %30.04 inSSE (160°)4.6 mphClear
6:30 PM55.4 °F41.0 °F58 %30.04 inSE (140°)3.5 mphClear
7:00 PM54.0 °F40.0 °F48 %30.06 in19.0 miSE (140°)4.6 mph
7:00 PM53.6 °F41.0 °F62 %30.04 inVariable2.3 mphClear
7:30 PM53.6 °F42.8 °F67 %30.06 inEast (100°)4.6 mphClear
8:00 PM53.6 °F42.8 °F67 %30.06 inEast (100°)2.3 mphClear
8:30 PM51.8 °F42.8 °F71 %30.06 inEast (90°)3.5 mphClear
9:00 PM50.0 °F41.0 °F71 %30.06 in6.2 miENE (60°)3.5 mphPartly Cloudy
9:30 PM48.2 °F41.0 °F76 %30.09 in6.2 miNW (320°)3.5 mphPartly Cloudy
10:00 PM48.2 °F41.0 °F76 %30.09 in6.2 miNNW (330°)5.8 mphPartly Cloudy
10:30 PM46.4 °F39.2 °F76 %30.09 in6.2 miNNW (340°)6.9 mphPartly Cloudy
11:00 PM46.4 °F41.0 °F81 %30.09 in6.2 miNNW (330°)5.8 mphPartly Cloudy
11:30 PM46.4 °F41.0 °F81 %30.09 in6.2 miNNW (330°)8.1 mphPartly Cloudy
Hourly data recorded from LEBL, located miles away from Barcelona, Spain







STORIES FROM OUR PARTNERS